Starlink 34242

operational
NORAD ID: 64727 Int'l Des: 2025-144 Owner: SPXS Country: US Constellation: starlink
LEOCIRCULAR

About Starlink 34242

Description loading...

Live Position

Loading 3D Globe...

Upcoming Passes

Altitude History

Altitude vs Time

uPlot chart will show altitude changes over time

Two-Line Element Set

1 64727U 25144D 26062.38983198 .00029355 00000-0 99889-3 0 9997
2 64727 53.1595 210.5658 0001273 79.4313 280.6831 15.30214393 38744
Epoch: Mar 3, 2026 • Age: 35 hours

Current Status

Altitude 474.8 km
Velocity 7.63 km/s
Sub-Earth Point 15.26°N, 102.57°W
Launch Date Jul 2, 2025
Age 0.6 years
Type internet

Technical Details

Classification Payload
Mass 575.00 kg
Dry Mass 530.00 kg
Total Mass 575.00 kg
Length 0.30 m
Diameter 4.10 m
Span 29.00 m
Shape Box + pan
Manufacturer SPXS
Bus Type Starlink V2MO
Phase Status In Orbit
Owner/State SPXS/US

Large Constellations

Loading constellations...